Theta_e
322 322 321 322 322 322 323 323 323 323 324 325 325 326 326 325 324 321 309 315 318 328 322 314 313 313 313 311 310 310 303 300 302 301 303 306 305 307 309 307 308 311 310 317 323
321 321 321 321 321 322 322 322 322 322 323 324 324 325 326 325 320 312 319 326 328 325 313 310 308 310 308 309 310 306 302 302 305 306 304 305 306 306 304 305 306 308 311 318 325
320 321 320 320 320 321 321 321 321 322 322 323 324 325 325 324 311 310 323 326 327 319 314 312 311 309 305 307 307 306 302 304 304 305 306 305 304 307 304 304 307 307 309 313 322
320 319 319 319 320 320 320 321 321 321 322 322 323 325 323 320 298 312 323 325 324 317 313 310 308 305 303 302 305 301 303 303 304 305 304 304 306 304 305 307 309 311 311 311 318
320 319 319 318 319 319 320 320 320 321 321 322 323 324 320 308 308 316 321 321 315 313 310 308 305 305 301 303 303 301 302 303 305 304 304 304 304 304 306 309 309 308 308 310 314
319 319 319 318 319 319 319 320 320 320 320 321 324 323 312 301 316 315 313 312 312 311 309 308 306 307 304 303 302 303 303 303 304 304 304 302 304 303 306 310 309 308 308 310 311
319 319 318 317 317 317 318 318 319 320 320 321 324 317 307 306 317 314 312 312 312 311 308 309 309 306 306 302 305 303 299 302 302 303 302 303 300 301 306 307 307 307 308 309 310
320 319 319 318 318 318 318 318 318 319 320 321 323 314 302 313 319 311 313 311 312 312 311 311 311 308 306 306 303 300 301 297 302 302 303 302 296 303 307 306 305 307 308 309 310
320 319 319 318 318 318 318 319 319 319 320 321 312 309 300 317 312 313 311 309 310 310 309 309 310 306 304 301 298 300 294 296 299 302 301 301 299 305 305 304 304 306 307 308 309
320 319 319 319 318 318 319 319 319 319 316 313 310 302 303 303 312 311 311 310 307 307 306 305 304 301 301 299 291 295 295 296 296 300 299 299 299 303 306 305 305 307 308 309 309
319 320 320 319 318 318 320 311 305 302 306 301 300 299 303 309 312 309 309 307 307 305 299 302 297 295 298 300 300 297 297 295 298 300 298 298 299 301 305 305 305 306 306 307 309
315 317 321 319 319 318 319 305 305 309 300 304 302 302 306 310 304 307 309 304 303 299 301 298 295 300 301 300 298 297 295 295 299 299 296 298 297 301 303 304 305 306 306 307 309
312 313 316 320 318 318 318 310 315 312 299 301 303 302 302 307 302 304 306 305 301 299 298 295 297 300 298 296 295 296 295 295 295 297 299 297 295 299 303 305 305 306 307 308 309
311 311 316 318 315 319 316 318 317 314 300 300 298 303 303 306 299 306 308 304 300 297 298 297 299 297 296 295 297 292 299 297 295 294 290 296 288 296 300 301 304 305 306 307 309
310 309 310 314 317 315 317 319 318 313 286 300 298 306 304 300 300 301 305 303 298 298 298 295 296 295 294 295 298 295 298 296 295 294 293 293 290 294 300 298 301 304 307 308 310
308 308 309 315 317 317 320 319 315 296 286 296 299 298 297 298 298 300 301 304 303 299 298 297 299 299 298 297 298 298 297 296 296 294 287 292 291 292 296 299 301 304 306 307 308
306 307 307 308 310 318 318 311 294 285 299 296 294 297 297 295 295 298 296 295 293 290 291 295 295 298 299 295 297 297 294 287 286 286 285 291 290 293 298 301 302 302 304 307 307
305 305 308 305 312 316 311 298 285 292 296 298 296 296 294 296 295 295 295 293 297 295 292 290 287 295 298 297 294 294 294 288 282 284 287 289 286 293 301 303 304 304 305 306 307
303 304 303 308 308 312 302 287 289 293 298 296 295 292 293 295 295 294 294 294 297 297 290 290 289 297 297 298 298 293 290 297 290 286 285 289 293 298 300 299 301 302 303 304 306
300 299 298 308 310 308 296 290 294 299 300 299 293 296 292 293 291 292 293 297 296 298 299 294 288 293 294 296 297 295 297 288 289 284 282 286 289 291 297 299 300 301 303 305 306
299 293 299 307 311 300 289 292 295 300 301 297 295 294 295 293 292 291 293 296 297 296 299 296 292 289 292 291 291 291 290 291 291 289 284 283 288 298 298 300 300 302 303 304 305
296 287 302 308 295 296 291 294 297 297 300 298 299 297 295 295 293 294 293 296 298 297 293 296 293 288 289 295 295 295 293 292 287 285 288 287 288 298 300 301 302 302 303 305 305
291 292 302 304 286 290 293 294 296 296 296 296 295 298 298 295 291 294 296 301 299 298 295 295 289 286 287 291 292 290 293 293 293 291 288 285 287 299 301 300 302 302 304 304 305
292 285 292 295 296 290 289 289 290 296 296 298 296 298 295 293 296 293 294 298 299 300 298 297 290 288 286 290 293 289 291 293 291 287 287 289 291 296 299 300 302 303 303 304 305
292 287 291 285 287 290 290 288 287 287 294 295 293 295 294 290 292 292 295 296 296 297 296 295 286 290 292 294 293 292 292 292 290 291 287 291 292 296 299 300 302 304 304 304 304
289 287 290 289 290 288 288 286 285 288 289 288 289 291 294 290 291 289 292 293 293 297 295 295 287 291 287 293 294 290 293 293 293 292 292 293 293 300 302 303 303 303 303 303 303
293 295 292 287 287 287 286 286 287 289 290 291 290 290 289 291 293 294 294 294 293 291 292 290 287 285 283 289 288 284 289 293 294 296 295 290 296 301 300 300 301 303 304 303 304
Wind_Speed
4 3 2 4 5 4 5 6 7 8 7 8 9 9 9 7 5 4 4 3 2 1 3 2 5 3 4 3 1 3 8 8 7 5 2 7 9 4 2 6 3 5 3 4 17
5 5 3 4 4 5 5 6 7 8 10 10 11 10 11 7 5 5 3 2 1 3 4 7 7 6 5 4 3 7 9 8 4 2 3 9 10 8 6 10 10 9 6 5 15
5 6 6 4 4 4 5 6 7 9 10 11 11 11 11 5 6 3 3 2 2 4 3 3 2 6 6 3 5 3 10 2 2 0 2 6 8 3 8 12 11 11 13 12 15
5 3 3 4 3 4 4 6 8 8 10 12 12 13 10 5 3 3 4 2 3 4 5 6 6 5 6 7 4 8 3 2 2 2 2 4 2 6 13 13 5 7 4 16 17
5 4 2 1 2 2 2 5 7 9 11 12 12 12 5 5 2 2 2 1 4 4 7 7 7 6 8 5 5 8 3 3 3 2 2 3 8 8 13 14 6 1 4 14 15
7 6 4 3 2 1 3 4 6 8 10 11 11 13 4 6 2 2 1 3 2 5 4 4 3 3 1 3 8 1 4 4 4 4 3 5 8 2 9 12 14 12 11 12 15
7 7 6 4 3 3 4 5 6 8 10 10 11 4 3 2 2 1 1 1 1 3 4 1 3 3 3 4 2 2 5 7 9 6 3 3 12 17 14 4 9 16 14 15 15
7 7 6 5 3 4 5 7 7 8 9 8 8 4 1 1 3 1 4 3 3 3 4 3 3 6 3 4 4 5 4 9 7 7 4 4 13 2 1 9 13 15 14 15 16
8 8 6 5 4 5 7 8 9 7 6 7 3 4 2 2 3 2 2 3 5 4 4 4 2 3 4 6 6 7 8 12 6 6 2 11 9 3 3 7 12 13 14 15 16
8 8 7 5 4 7 10 6 3 6 3 2 1 3 3 2 3 2 2 3 2 7 5 3 4 6 7 9 11 9 10 6 8 6 6 11 16 18 11 9 12 14 15 14 15
7 7 7 6 4 5 7 3 4 4 4 2 2 3 3 2 1 2 0 4 4 7 8 3 8 10 15 14 10 5 6 7 2 4 5 12 18 19 16 16 18 19 18 19 20
12 9 5 6 5 5 4 2 3 4 3 3 2 2 0 2 3 5 3 9 7 10 4 5 12 13 4 2 7 9 12 13 8 1 4 13 22 18 20 21 19 21 20 20 19
13 14 8 6 4 4 1 2 0 2 3 2 3 3 2 6 3 11 10 3 7 13 12 14 2 5 6 7 10 12 13 11 8 4 12 11 19 16 12 13 15 20 21 21 19
12 15 10 10 5 3 2 3 3 2 5 6 6 4 4 4 5 2 5 3 5 13 11 12 7 7 8 13 12 15 8 12 6 5 6 1 10 18 17 17 13 17 16 18 16
11 14 13 5 3 4 5 3 3 2 5 7 4 2 2 7 6 3 1 3 8 8 7 5 9 10 11 8 11 1 3 4 2 6 9 13 8 9 11 10 15 16 14 12 10
9 10 13 3 1 2 5 4 1 5 11 5 5 5 6 5 2 3 6 1 4 5 6 3 1 6 4 4 6 13 7 3 1 3 10 12 13 11 15 10 6 6 3 3 3
7 9 6 3 1 2 3 2 3 6 2 8 5 6 8 7 5 7 12 13 12 9 16 10 9 4 4 6 4 11 7 4 5 6 10 6 7 13 13 12 10 10 14 6 2
7 9 3 2 2 2 1 2 7 8 13 2 4 5 8 10 7 6 7 14 18 15 7 15 10 15 14 13 9 16 13 8 7 7 10 4 12 6 7 10 10 12 12 11 7
5 1 3 1 3 1 2 7 6 7 6 10 5 5 7 7 4 11 16 15 13 19 12 11 11 4 1 8 12 7 11 10 10 3 4 10 19 18 12 12 14 16 13 13 10
2 2 3 1 6 3 4 12 12 9 9 12 15 11 11 11 8 10 13 6 13 13 19 7 14 1 3 3 7 7 3 8 6 6 10 15 19 13 6 9 6 7 6 6 4
1 3 2 4 6 4 8 10 12 3 7 10 13 13 11 9 8 6 5 2 7 2 15 13 7 4 4 11 15 8 8 6 4 7 7 11 12 8 5 2 1 1 1 3 6
1 4 2 7 8 5 12 6 2 10 12 7 8 10 10 6 7 15 12 8 3 5 7 12 5 12 11 3 4 14 18 19 8 6 6 6 18 6 1 1 2 2 3 4 2
3 2 2 5 11 12 13 20 17 9 12 12 12 13 11 12 7 13 12 4 7 3 3 2 3 3 5 6 2 7 14 9 18 2 11 9 14 3 4 3 5 6 6 4 3
2 5 4 5 10 12 17 17 19 11 15 14 6 14 15 16 11 5 9 3 5 8 7 8 6 7 10 2 4 6 13 16 17 13 20 18 25 25 17 11 8 6 4 8 8
5 6 5 9 12 14 14 8 19 14 14 11 8 17 15 14 17 21 18 16 8 4 5 9 6 12 20 23 23 20 19 16 19 23 23 25 25 31 22 18 15 15 14 14 15
5 5 3 6 12 19 14 14 16 19 12 14 17 15 16 18 18 10 2 6 14 9 10 4 5 9 16 21 20 22 20 18 21 24 24 30 28 28 23 20 18 18 18 18 15
1 3 4 8 8 13 18 19 11 14 13 15 13 14 12 10 5 7 5 3 3 3 4 6 3 3 11 11 10 11 21 25 24 24 22 22 26 22 26 23 21 21 17 18 18
Wind_Direction
156 141 110 100 77 50 31 12 3 0 353 343 343 332 331 339 113 180 193 42 28 20 279 141 210 183 198 160 248 274 249 243 241 237 215 147 193 165 37 254 216 188 311 42 141
159 140 121 85 66 48 36 12 6 357 347 345 341 332 335 327 224 214 65 1 319 280 197 196 182 184 174 178 202 242 240 256 22 276 244 177 204 174 216 216 228 209 157 152 153
185 156 145 118 90 61 28 12 359 355 348 346 342 331 332 293 218 130 44 351 279 259 251 205 218 212 208 205 191 199 249 69 181 118 304 185 207 190 225 246 234 223 190 176 181
202 194 160 133 111 70 29 1 353 347 346 346 342 334 325 228 220 100 19 346 275 273 198 174 192 198 224 204 196 237 247 257 103 126 196 211 225 213 229 237 16 256 272 175 191
202 214 224 185 121 93 36 3 347 345 341 339 340 329 270 210 88 103 57 151 236 219 217 199 200 211 214 194 196 235 184 200 138 168 237 316 240 242 246 241 195 242 202 190 202
204 216 221 235 276 357 358 355 343 338 337 332 334 316 248 232 85 30 111 127 225 213 188 211 262 238 199 211 240 131 196 193 190 193 205 264 257 223 235 244 232 214 219 214 214
216 219 222 249 264 305 328 323 325 330 326 329 332 331 255 28 11 40 182 98 87 254 165 84 111 242 137 169 171 172 210 215 214 195 213 254 252 240 243 180 241 233 232 232 223
216 234 224 225 265 296 310 313 312 315 314 323 323 281 337 48 8 152 168 113 97 77 97 105 123 102 331 120 178 217 241 224 132 182 146 208 265 193 267 210 242 243 238 231 231
213 223 237 245 269 293 304 303 294 293 297 298 262 288 151 128 178 89 287 147 120 99 74 124 92 103 165 215 208 205 255 216 179 203 167 213 273 99 149 225 249 250 249 245 238
218 214 221 234 273 304 308 291 308 261 201 233 235 244 151 147 118 119 34 159 139 140 134 153 171 198 220 218 228 225 227 221 253 139 225 244 254 270 243 224 256 261 255 244 242
33 228 223 222 252 311 319 228 204 176 210 290 29 3 131 85 223 139 147 168 146 205 196 156 214 207 221 224 279 304 272 260 144 93 281 257 266 270 273 267 260 256 254 254 249
23 14 236 220 235 283 285 358 31 9 262 210 235 278 121 233 149 173 195 195 192 202 164 177 223 232 86 100 231 247 259 263 268 343 261 284 281 276 269 261 256 259 256 252 253
19 3 325 203 219 261 357 87 107 284 267 174 180 215 178 190 230 174 189 191 210 209 208 225 166 157 177 192 216 234 247 258 267 316 241 287 273 262 241 252 262 259 259 260 257
24 355 320 158 218 154 182 165 232 316 265 191 196 135 156 204 222 20 189 243 209 218 210 241 154 157 199 225 215 245 215 255 271 279 270 323 290 290 285 271 244 260 251 253 251
7 4 339 301 117 199 99 192 173 271 246 97 143 64 137 216 118 143 36 193 203 183 188 175 191 199 214 212 199 240 88 195 231 262 298 243 257 262 261 255 262 258 262 266 259
353 344 343 292 252 9 129 164 180 202 228 162 143 167 156 199 120 111 173 204 347 191 238 291 4 207 234 73 221 133 120 133 218 280 257 242 225 259 252 266 260 268 260 304 9
342 335 319 303 78 7 82 161 149 209 135 172 172 180 193 177 187 199 186 188 191 196 225 201 216 158 171 128 145 202 181 227 234 203 259 99 231 251 294 284 262 285 292 291 208
345 323 316 289 2 107 59 79 196 194 202 89 142 151 191 163 200 192 200 220 221 230 277 214 213 186 192 220 176 197 205 210 229 235 270 116 241 259 227 284 276 265 272 297 291
326 306 282 243 166 267 159 206 211 189 208 158 151 184 185 194 263 198 221 230 223 211 219 214 233 164 179 218 209 169 215 254 278 74 284 250 262 264 203 226 263 271 285 283 283
342 313 249 323 148 185 212 224 224 231 166 187 209 199 223 181 191 202 198 236 221 234 227 254 259 170 130 195 241 247 229 191 219 216 235 255 262 260 265 271 230 270 290 323 343
237 241 97 195 171 226 210 222 227 205 194 196 221 204 205 175 186 237 239 173 205 219 209 226 228 118 167 211 195 181 213 227 245 243 244 261 260 280 260 344 240 160 351 9 351
241 231 91 198 190 204 228 211 171 231 226 241 259 230 205 198 211 212 225 228 65 151 178 227 280 240 216 104 296 245 229 211 212 197 244 286 269 131 10 353 47 309 313 320 313
224 264 87 219 205 213 224 220 226 214 224 229 229 216 218 226 217 234 245 260 164 234 165 117 289 243 237 211 199 238 224 251 236 262 216 216 254 137 343 240 287 298 339 200 241
206 204 153 223 262 241 216 220 215 223 241 222 241 229 223 215 220 226 221 235 190 196 183 96 187 231 233 215 84 217 233 234 235 233 245 239 254 268 258 265 263 252 261 274 252
207 228 188 195 224 220 227 216 213 215 220 223 229 233 214 230 234 238 242 249 166 197 186 168 225 221 247 262 277 274 270 244 222 235 239 259 251 266 274 276 288 297 293 291 295
203 213 196 284 218 205 214 220 228 215 189 214 233 226 230 240 239 241 315 296 247 182 215 166 252 256 264 260 257 254 250 241 229 232 239 247 258 262 282 282 278 277 274 277 281
188 276 256 213 206 203 212 218 224 220 220 244 243 223 218 239 327 336 311 253 269 340 228 183 181 169 261 269 275 260 237 240 245 244 243 248 261 274 274 279 282 280 286 288 281